Miscellaneous Local Product
Issued by NWS North Platte, NE

Home | Current Version | Previous Version | Graphics & Text | Print | Product List | Glossary On
Versions: 1 2 3 4 5 6 7 8 9 10 11 12 13 14 15 16 17 18 19 20 21 22 23 24 25 26 27 28 29 30 31 32 33 34 35 36 37 38 39 40 41 42 43 44 45 46 47 48 49 50
000
AXUS43 KLBF 270310
MISLBF


WESTERN AND NORTH CENTRAL NEBRASKA HOURLY WEATHER ROUNDUP
NATIONAL WEATHER SERVICE NORTH PLATTE NE
1000 PM CDT SUN APR 26 2015

***STATIONS NOT REPORTING VARIABLES SUCH AS SKY/WEATHER OR
PRESSURE ARE PROVIDED BY THE NEBRASKA DEPARTMENT OF
ROADS...RAWS...AND APRS NETWORKS...AND ARE NOT UNDER
NATIONAL WEATHER SERVICE QUALITY CONTROL***

...OBSERVATIONS IN AND NEAR THE EASTERN PANHANDLE OF NEBRASKA...

CITY           SKY/WX    TMP DP  RH WIND       PRES   REMARKS
PINE RIDGE     CLOUDY    43  38  82 NE6       30.10R
CHADRON        CLOUDY    48  40  73 SE5       30.10R
ALLIANCE       CLOUDY    42  38  85 CALM      30.08R
SIDNEY         CLOUDY    42  41  96 E7        30.09R FOG
$$

...OBSERVATIONS IN NORTH CENTRAL NEBRASKA...

CITY           SKY/WX    TMP DP  RH WIND       PRES   REMARKS
VALENTINE      PTCLDY    49  32  52 NE5       30.09R
THEDFORD       PTCLDY    48  38  70 SE5       30.09R
AINSWORTH      PTCLDY    49  28  45 E6        30.09R
O`NEILL        CLEAR     50  34  53 CALM      30.08R
ORD            CLEAR     45  34  65 CALM      30.07R
BROKEN BOW     PTCLDY    40  34  79 CALM      30.08R
$$

...OBSERVATIONS IN SOUTHWEST NEBRASKA AND FAR NORTHEAST COLORADO...

CITY           SKY/WX    TMP DP  RH WIND       PRES   REMARKS
WRAY           CLOUDY   N/A N/A N/A E6        30.07R
HOLYOKE        MOCLDY    46  43  87 NE6       30.08R FOG
IMPERIAL       CLOUDY    47  42  83 E8        30.08R
OGALLALA       PTCLDY    46  42  86 CALM      30.08R
MCCOOK         CLOUDY    51  43  74 NE7       30.06R
LEXINGTON      CLOUDY    48  43  81 E7        30.07R
$$

...NORTH PLATTE AREA...

CITY           SKY/WX    TMP DP  RH WIND       PRES   REMARKS
$$

...SOME WEATHER OBSERVATIONS FROM AROUND THE REGION...

CITY           SKY/WX    TMP DP  RH WIND       PRES   REMARKS
DENVER         LGT RAIN  41  41 100 E12       30.04R FOG
LARAMIE        CLOUDY    38  33  82 SE7       30.04R WCI  33
CHEYENNE       CLOUDY    38  37  97 E6        30.07R FOG     WCI  33
SCOTTSBLUFF    CLOUDY    45 N/A N/A E10       30.10R
RAPID CITY     CLOUDY    47  44  90 W3        30.11R
PIERRE         CLOUDY    53  32  44 E5        30.09R
WINNER         FAIR      52  31  44 SE7       30.09R
SIOUX FALLS    CLEAR     50  35  56 NE7       30.09R
OMAHA          PTCLDY    54  34  46 E6        30.06R
GRAND ISLAND   CLEAR     45  39  79 E6        30.09R
KANSAS CITY    PTCLDY    53  38  56 E8        30.01R
WICHITA        CLOUDY    53  45  74 E10       29.94R
HAYS           CLOUDY    48  39  71 NE5       30.03R
LIBERAL        CLOUDY    50  46  87 NE9       29.96R
GOODLAND       LGT RAIN  44  43  96 E10       30.06R
$$



USA.gov is the U.S. government's official web portal to all federal, state and local government web resources and services.